SCP
0 0 0 0 0 0 -0 -0 -0 -0 -0 0 0 0 0 0 0 -0 0 0 0 0 0 0 0 -0 0 0 -0 -0 -0 -0 -0 -0 -0 -0 -0 -0 -0 0 -0 -0 -0
-0 -0 -0 0 0 0 -0 -0 -0 -0 0 0 0 0 0 0 0 0 0 -0 -0 0 0 0 0 0 -0 -0 -0 -0 -0 0 0 -0 -0 -0 -0 -0 -0 -0 -0 -0 -0
-0 -0 -0 0 0 0 0 -0 0 0 -0 -0 0 0 0 0 0 0 0 -0 -0 -0 0 0 0 0 0 -0 -0 -0 0 -0 0 0 0 -0 0 -0 -0 -0 -0 -0 0
-0 -0 -0 -0 0 0 0 0 0 0 0 -0 0 0 0 0 0 0 0 0 -0 -0 -0 0 0 0 0 0 -0 -0 0 0 0 0 0 0 -0 -0 -0 -0 -0 -0 0
-0 -0 -0 -0 -0 -0 0 0 0 0 0 -0 -0 0 0 0 0 0 0 0 -0 -0 -0 -0 -0 -0 0 0 0 0 0 0 -0 -0 -0 -0 0 -0 -0 0 0 0 0
0 -0 -0 -0 -0 -0 0 0 0 0 0 0 0 0 0 0 0 0 0 0 -0 -0 -0 0 0 0 0 0 0 0 0 -0 -0 -0 0 -0 0 0 0 0 0 0 0
0 -0 0 -0 -0 -0 0 0 0 0 0 0 0 0 0 0 -0 0 0 0 0 -0 -0 -0 0 0 0 0 -0 0 0 -0 -0 -0 0 0 0 -0 0 0 0 0 0
0 0 0 0 0 0 0 0 0 0 0 0 0 0 0 0 0 0 0 0 0 0 0 -0 -0 0 0 -0 -0 -0 -0 -0 -0 0 -0 0 0 0 0 0 0 0 0
0 0 0 0 0 0 0 0 0 0 0 0 0 0 0 0 0 0 0 0 0 0 0 0 0 0 0 0 0 0 0 0 0 0 0 0 -0 0 0 0 0 0 0
0 0 0 0 0 0 0 0 0 0 0 0 0 0 0 0 0 0 0 0 0 0 0 0 0 0 0 0 0 0 0 0 0 0 0 0 0 -0 -0 0 0 0 0
0 0 0 0 0 0 0 0 0 0 0 0 0 0 0 0 0 0 0 0 0 0 0 0 0 0 0 0 0 0 0 0 0 0 0 0 0 0 0 0 0 0 0
0 0 0 0 0 0 0 0 0 0 0 0 0 0 0 0 0 0 0 0 0 0 0 0 0 0 0 0 0 0 0 0 0 0 0 0 0 0 0 0 0 0 0
0 0 0 0 0 0 0 0 0 0 0 0 0 0 0 0 0 0 0 0 0 0 0 0 0 0 0 0 0 0 0 0 0 0 0 0 0 0 0 0 0 0 0
0 0 0 0 0 0 0 0 0 0 0 0 0 0 0 0 0 0 0 0 0 0 0 0 0 0 0 0 0 0 0 0 0 0 0 0 0 0 0 0 0 0 0
0 0 0 0 0 0 0 0 0 0 0 0 0 0 0 0 0 0 0 0 0 0 0 0 0 0 0 0 0 0 0 0 0 0 0 0 0 0 0 0 0 0 0
0 0 0 0 0 0 0 0 0 0 0 0 0 0 0 0 0 0 0 0 0 0 0 0 0 0 0 0 0 0 0 0 0 0 0 0 0 0 0 0 0 0 0
0 0 0 0 0 0 0 0 0 0 0 0 0 0 0 0 0 0 0 0 0 0 0 0 0 0 0 0 0 0 0 0 0 0 0 0 0 0 0 0 0 0 0
0 0 0 0 0 0 0 0 0 0 0 0 0 0 0 0 0 0 0 0 0 0 0 0 0 0 0 0 0 0 0 0 0 0 0 0 0 0 0 0 0 0 0
0 0 0 0 0 0 0 0 0 0 0 0 0 0 0 0 0 0 0 0 0 0 0 0 0 0 0 0 0 0 0 0 0 0 0 0 0 0 0 0 0 0 0
0 0 0 0 0 0 0 0 0 0 0 0 0 0 0 0 0 0 0 0 0 0 0 0 0 0 0 0 0 0 0 0 0 0 0 0 0 0 0 0 0 0 0
0 0 0 0 0 0 0 0 0 0 0 0 0 0 0 0 0 0 0 0 0 0 0 0 0 0 0 0 0 0 0 0 0 0 0 0 0 0 0 0 0 0 0
0 0 0 0 0 0 0 0 0 0 0 0 0 0 0 0 0 0 0 0 0 0 0 0 0 0 0 0 0 0 0 0 0 0 0 0 0 0 0 0 0 0 0
0 0 0 0 0 0 0 0 0 0 0 0 0 0 0 0 0 0 0 0 0 0 0 0 0 0 0 0 0 0 0 0 0 0 0 0 0 0 0 0 0 0 0
0 0 0 0 0 0 0 0 0 0 0 0 0 0 0 0 0 0 0 0 0 0 0 0 0 0 0 0 0 0 0 0 0 0 0 0 0 0 0 0 0 0 0
0 0 0 0 0 0 0 0 0 0 0 0 0 0 0 0 0 0 0 0 0 0 0 0 0 0 0 0 0 0 0 0 0 0 0 0 0 0 0 0 0 0 0
-0 -0 -0 -0 -0 -0 0 0 0 0 0 0 0 0 0 0 0 0 0 0 0 0 0 0 0 0 0 0 0 0 0 0 0 0 0 0 0 0 0 0 0 0 0
Wind_Speed_500mb
16 18 13 8 9 10 10 11 8 7 11 12 13 10 14 19 17 19 20 19 19 17 14 21 18 18 21 20 18 19 19 20 21 21 21 22 27 28 28 28 25 26 26
15 17 16 12 9 10 8 8 4 4 3 6 3 4 7 5 10 11 12 19 21 18 14 12 18 17 19 19 19 20 25 30 31 30 31 23 22 23 24 22 22 21 24
20 11 14 15 12 12 8 8 4 1 7 9 6 6 6 6 11 11 9 6 13 18 18 12 12 15 17 19 20 24 30 39 33 27 19 18 15 16 16 15 16 18 18
22 6 14 15 13 12 10 7 4 5 7 9 8 8 9 8 10 13 12 10 10 11 15 16 15 14 15 17 19 24 31 31 25 26 22 13 10 9 10 11 11 12 12
22 17 18 8 14 14 13 8 5 3 4 6 7 10 11 13 14 13 11 9 12 10 8 8 11 13 13 13 16 21 26 24 20 15 10 5 3 7 9 7 6 7 9
26 26 26 17 16 18 15 10 8 5 1 4 6 9 11 12 13 14 13 13 11 9 7 7 7 9 11 10 12 16 19 17 10 11 9 5 5 9 7 3 2 7 9
26 29 25 22 22 19 16 14 12 7 3 1 2 4 8 10 11 13 13 13 11 8 8 8 6 5 6 7 8 11 12 9 3 3 2 1 1 6 5 4 4 5 9
27 23 27 24 24 24 21 20 17 12 8 6 3 0 3 6 9 13 15 14 12 9 7 6 7 4 1 2 4 7 10 7 1 2 6 7 5 5 7 8 8 6 7
27 29 29 27 32 28 26 24 21 18 14 11 8 5 2 2 7 12 14 14 13 11 8 7 4 3 3 3 2 6 8 7 5 3 6 5 10 10 12 11 11 7 6
30 29 30 29 22 34 35 32 29 25 20 16 13 11 7 4 4 9 12 16 13 11 9 7 5 5 2 2 3 5 8 4 2 6 10 8 0 5 6 11 9 11 9
32 33 29 42 34 28 31 38 36 31 26 23 19 16 13 11 7 9 16 16 14 11 9 7 5 4 4 3 2 5 8 8 4 20 23 17 12 5 4 6 5 6 8
36 37 34 39 36 21 28 33 39 37 32 29 25 20 18 15 11 5 10 14 14 11 8 5 3 2 1 2 4 8 9 9 22 29 21 14 13 14 13 11 10 8 8
39 39 41 38 42 30 39 44 38 43 39 35 34 28 25 22 16 10 9 9 12 11 8 5 3 3 1 2 2 4 8 10 17 23 19 16 15 15 15 15 16 10 11
42 46 50 50 50 47 49 55 45 39 35 36 39 35 35 29 25 22 16 13 14 13 11 11 7 3 4 4 4 4 6 11 19 22 17 13 16 19 21 20 19 18 19
48 47 55 51 53 57 55 59 54 42 44 46 46 42 44 37 32 26 21 14 13 12 13 11 12 8 6 7 8 9 11 10 16 22 19 16 17 20 23 24 24 26 27
48 50 54 54 51 52 61 64 66 57 59 54 51 50 50 44 38 34 28 23 17 15 14 14 13 12 11 11 8 10 12 14 15 19 21 18 17 20 22 22 22 24 28
54 53 56 57 63 57 59 64 69 66 61 59 58 59 56 51 45 41 36 30 24 19 17 15 16 15 16 15 13 13 11 13 15 18 20 20 19 19 20 21 22 22 24
52 53 51 59 64 67 59 60 67 68 67 68 66 68 62 58 53 50 42 37 32 27 23 22 21 20 19 18 14 14 20 19 15 20 21 21 21 23 20 20 20 21 23
44 45 53 53 63 69 60 63 66 72 74 74 72 77 70 66 62 58 51 45 41 36 31 27 25 23 22 21 18 19 21 22 23 21 27 22 23 22 23 25 22 24 25
19 36 44 45 46 66 63 60 64 70 74 75 77 80 76 74 69 65 60 54 51 44 38 33 30 27 27 26 24 22 23 25 26 24 28 23 24 34 28 24 21 24 28
34 27 26 14 31 44 62 66 72 71 71 73 76 74 75 76 75 72 69 63 59 52 44 38 33 33 30 28 27 20 18 20 24 23 21 21 16 27 34 31 28 27 27
65 51 31 23 20 22 40 72 79 82 80 78 78 76 77 84 80 77 76 72 66 59 52 45 41 38 34 32 22 19 11 21 25 21 21 20 23 22 29 25 23 31 33
71 66 57 46 40 38 32 41 72 72 72 77 75 86 88 87 88 80 80 76 71 66 58 51 46 43 39 38 32 22 13 12 15 18 23 24 25 25 21 26 34 31 30
67 65 66 62 60 51 50 43 41 81 87 87 89 93 91 91 94 88 81 78 76 70 62 58 51 48 44 43 35 35 33 22 16 12 17 20 22 20 33 32 26 30 36
62 63 66 63 58 67 63 55 64 48 90 92 85 85 89 93 97 96 88 83 78 73 66 62 56 53 49 46 45 34 32 34 31 30 24 31 27 25 26 31 40 42 33
61 60 62 52 56 59 61 66 61 66 58 87 88 83 87 91 94 96 93 88 84 77 71 65 60 55 49 46 45 40 36 32 27 26 26 29 35 37 37 35 31 34 40
Wind_Direction_500mb
201 185 186 163 128 129 114 152 105 118 108 123 97 95 79 64 54 56 49 42 52 53 81 60 62 58 65 64 64 75 83 86 84 85 83 88 99 98 97 89 74 80 67
183 179 186 178 157 144 129 154 152 141 81 135 129 100 72 69 68 53 73 55 49 54 63 64 59 58 64 67 66 70 80 84 87 84 76 66 95 100 101 103 86 80 62
163 175 182 182 167 150 144 144 157 294 35 69 61 50 21 353 355 23 44 49 59 56 53 57 50 59 64 64 65 70 84 94 84 77 70 44 93 95 106 105 82 73 55
168 231 164 186 176 172 171 166 146 76 68 72 64 48 38 30 28 35 45 43 38 61 57 50 47 50 59 64 69 83 96 99 91 83 96 90 57 79 96 113 85 54 61
159 182 214 206 199 189 176 183 186 134 75 63 67 56 45 44 42 39 38 36 42 43 41 42 48 54 55 63 69 87 101 95 87 112 130 169 68 90 89 104 64 45 29
174 209 223 230 209 193 187 194 203 161 345 66 51 53 52 46 41 38 28 30 34 15 7 10 23 31 42 62 74 87 107 101 83 116 117 127 54 79 75 64 12 336 347
185 219 230 229 216 212 208 206 203 195 224 250 43 51 63 55 47 35 29 26 29 14 344 332 343 18 34 59 92 98 120 105 82 65 38 68 31 50 35 16 342 320 316
193 224 247 231 225 220 218 211 206 206 221 224 215 301 44 59 46 35 25 23 21 26 10 342 330 333 28 191 139 130 146 143 157 291 269 321 333 326 320 323 347 320 308
205 202 242 257 229 215 218 217 211 212 220 221 225 230 248 20 35 28 29 27 23 19 22 30 30 359 308 266 201 159 169 197 46 287 300 51 14 336 319 305 295 311 303
204 213 228 249 250 219 213 214 213 214 216 219 225 233 224 244 345 12 25 23 18 22 20 30 45 64 69 272 241 198 192 191 6 242 267 300 113 266 346 345 295 274 282
209 216 204 228 247 260 227 217 217 216 217 219 223 227 230 219 244 1 9 11 8 14 18 25 41 58 69 83 148 172 201 187 159 258 269 284 277 348 10 293 262 246 240
215 214 216 230 238 245 232 240 222 221 222 224 225 225 226 234 263 321 352 355 359 356 360 7 12 15 96 83 136 192 217 171 209 254 281 291 273 280 291 260 250 259 268
222 221 215 214 232 231 212 236 241 228 223 222 224 217 223 225 231 259 295 333 348 343 327 329 342 348 102 154 218 195 219 194 237 264 286 289 279 279 271 264 271 255 256
226 222 220 212 219 221 220 232 238 236 230 220 226 218 217 227 228 247 261 307 334 339 329 315 317 272 222 224 204 226 230 227 227 264 284 289 279 273 271 269 266 264 268
230 230 230 222 213 220 222 224 229 219 229 222 226 220 226 229 232 240 253 268 292 313 308 302 294 287 264 251 241 234 251 247 234 275 287 286 276 274 273 270 266 265 264
243 236 236 230 220 224 222 226 229 214 226 231 230 224 226 229 231 235 241 252 267 280 291 285 282 273 270 269 262 253 253 256 261 267 282 284 278 277 276 277 276 271 269
248 245 236 234 231 220 230 228 232 229 226 228 230 233 228 229 229 234 237 244 253 262 268 273 270 265 265 260 269 282 270 269 274 277 280 289 282 277 278 278 278 278 279
247 250 250 238 240 234 224 235 232 234 229 230 228 236 233 227 229 234 235 242 248 254 260 265 266 259 258 259 255 274 286 286 281 276 284 281 288 289 281 277 281 280 280
249 247 250 251 240 236 236 226 234 237 238 238 232 236 236 231 230 233 236 239 244 250 253 258 262 259 253 251 247 239 265 274 287 280 284 285 281 272 281 284 281 280 280
278 247 246 254 259 240 239 227 233 236 241 242 239 237 239 235 233 233 236 237 243 245 247 250 254 251 248 247 250 245 256 261 275 266 258 278 286 296 296 294 284 285 284
31 33 20 354 265 262 235 229 226 237 235 235 241 241 240 240 238 235 236 237 241 244 246 247 245 248 246 243 249 254 252 264 280 278 267 253 252 286 295 307 311 310 302
7 4 356 332 307 313 291 246 238 232 236 239 240 241 239 244 242 235 235 237 241 244 239 241 241 243 243 241 236 233 251 233 252 261 265 258 268 253 276 298 305 297 296
360 354 352 340 317 303 292 294 241 231 233 234 233 241 241 239 245 239 235 236 239 241 239 242 241 241 238 237 236 221 203 220 204 241 256 250 257 279 300 289 286 295 303
356 350 346 347 344 331 304 296 278 246 232 233 238 243 242 237 240 243 237 236 237 239 237 240 239 238 236 237 234 228 223 218 215 210 225 246 256 276 281 292 300 287 288
347 341 332 332 331 327 333 314 285 301 253 241 237 239 239 239 236 242 239 235 235 236 236 237 237 236 233 229 238 236 227 230 234 237 239 227 251 262 273 273 279 289 296
344 336 334 337 323 323 322 319 313 284 285 246 237 238 236 237 234 236 240 236 235 235 233 235 235 236 235 228 225 234 237 230 233 239 250 262 267 275 278 283 287 280 287
Wind_Speed_850mb
16 18 13 8 9 10 10 11 8 7 11 12 13 10 14 19 17 19 20 19 19 17 14 21 18 18 21 20 18 19 19 20 21 21 21 22 27 28 28 28 25 26 26
15 17 16 12 9 10 8 8 4 4 3 6 3 4 7 5 10 11 12 19 21 18 14 12 18 17 19 19 19 20 25 30 31 30 31 23 22 23 24 22 22 21 24
20 11 14 15 12 12 8 8 4 1 7 9 6 6 6 6 11 11 9 6 13 18 18 12 12 15 17 19 20 24 30 39 33 27 19 18 15 16 16 15 16 18 18
22 6 14 15 13 12 10 7 4 5 7 9 8 8 9 8 10 13 12 10 10 11 15 16 15 14 15 17 19 24 31 31 25 26 22 13 10 9 10 11 11 12 12
22 17 18 8 14 14 13 8 5 3 4 6 7 10 11 13 14 13 11 9 12 10 8 8 11 13 13 13 16 21 26 24 20 15 10 5 3 7 9 7 6 7 9
26 26 26 17 16 18 15 10 8 5 1 4 6 9 11 12 13 14 13 13 11 9 7 7 7 9 11 10 12 16 19 17 10 11 9 5 5 9 7 3 2 7 9
26 29 25 22 22 19 16 14 12 7 3 1 2 4 8 10 11 13 13 13 11 8 8 8 6 5 6 7 8 11 12 9 3 3 2 1 1 6 5 4 4 5 9
27 23 27 24 24 24 21 20 17 12 8 6 3 0 3 6 9 13 15 14 12 9 7 6 7 4 1 2 4 7 10 7 1 2 6 7 5 5 7 8 8 6 7
27 29 29 27 32 28 26 24 21 18 14 11 8 5 2 2 7 12 14 14 13 11 8 7 4 3 3 3 2 6 8 7 5 3 6 5 10 10 12 11 11 7 6
30 29 30 29 22 34 35 32 29 25 20 16 13 11 7 4 4 9 12 16 13 11 9 7 5 5 2 2 3 5 8 4 2 6 10 8 0 5 6 11 9 11 9
32 33 29 42 34 28 31 38 36 31 26 23 19 16 13 11 7 9 16 16 14 11 9 7 5 4 4 3 2 5 8 8 4 20 23 17 12 5 4 6 5 6 8
36 37 34 39 36 21 28 33 39 37 32 29 25 20 18 15 11 5 10 14 14 11 8 5 3 2 1 2 4 8 9 9 22 29 21 14 13 14 13 11 10 8 8
39 39 41 38 42 30 39 44 38 43 39 35 34 28 25 22 16 10 9 9 12 11 8 5 3 3 1 2 2 4 8 10 17 23 19 16 15 15 15 15 16 10 11
42 46 50 50 50 47 49 55 45 39 35 36 39 35 35 29 25 22 16 13 14 13 11 11 7 3 4 4 4 4 6 11 19 22 17 13 16 19 21 20 19 18 19
48 47 55 51 53 57 55 59 54 42 44 46 46 42 44 37 32 26 21 14 13 12 13 11 12 8 6 7 8 9 11 10 16 22 19 16 17 20 23 24 24 26 27
48 50 54 54 51 52 61 64 66 57 59 54 51 50 50 44 38 34 28 23 17 15 14 14 13 12 11 11 8 10 12 14 15 19 21 18 17 20 22 22 22 24 28
54 53 56 57 63 57 59 64 69 66 61 59 58 59 56 51 45 41 36 30 24 19 17 15 16 15 16 15 13 13 11 13 15 18 20 20 19 19 20 21 22 22 24
52 53 51 59 64 67 59 60 67 68 67 68 66 68 62 58 53 50 42 37 32 27 23 22 21 20 19 18 14 14 20 19 15 20 21 21 21 23 20 20 20 21 23
44 45 53 53 63 69 60 63 66 72 74 74 72 77 70 66 62 58 51 45 41 36 31 27 25 23 22 21 18 19 21 22 23 21 27 22 23 22 23 25 22 24 25
19 36 44 45 46 66 63 60 64 70 74 75 77 80 76 74 69 65 60 54 51 44 38 33 30 27 27 26 24 22 23 25 26 24 28 23 24 34 28 24 21 24 28
34 27 26 14 31 44 62 66 72 71 71 73 76 74 75 76 75 72 69 63 59 52 44 38 33 33 30 28 27 20 18 20 24 23 21 21 16 27 34 31 28 27 27
65 51 31 23 20 22 40 72 79 82 80 78 78 76 77 84 80 77 76 72 66 59 52 45 41 38 34 32 22 19 11 21 25 21 21 20 23 22 29 25 23 31 33
71 66 57 46 40 38 32 41 72 72 72 77 75 86 88 87 88 80 80 76 71 66 58 51 46 43 39 38 32 22 13 12 15 18 23 24 25 25 21 26 34 31 30
67 65 66 62 60 51 50 43 41 81 87 87 89 93 91 91 94 88 81 78 76 70 62 58 51 48 44 43 35 35 33 22 16 12 17 20 22 20 33 32 26 30 36
62 63 66 63 58 67 63 55 64 48 90 92 85 85 89 93 97 96 88 83 78 73 66 62 56 53 49 46 45 34 32 34 31 30 24 31 27 25 26 31 40 42 33
61 60 62 52 56 59 61 66 61 66 58 87 88 83 87 91 94 96 93 88 84 77 71 65 60 55 49 46 45 40 36 32 27 26 26 29 35 37 37 35 31 34 40
Wind_Direction_850mb
201 185 186 163 128 129 114 152 105 118 108 123 97 95 79 64 54 56 49 42 52 53 81 60 62 58 65 64 64 75 83 86 84 85 83 88 99 98 97 89 74 80 67
183 179 186 178 157 144 129 154 152 141 81 135 129 100 72 69 68 53 73 55 49 54 63 64 59 58 64 67 66 70 80 84 87 84 76 66 95 100 101 103 86 80 62
163 175 182 182 167 150 144 144 157 294 35 69 61 50 21 353 355 23 44 49 59 56 53 57 50 59 64 64 65 70 84 94 84 77 70 44 93 95 106 105 82 73 55
168 231 164 186 176 172 171 166 146 76 68 72 64 48 38 30 28 35 45 43 38 61 57 50 47 50 59 64 69 83 96 99 91 83 96 90 57 79 96 113 85 54 61
159 182 214 206 199 189 176 183 186 134 75 63 67 56 45 44 42 39 38 36 42 43 41 42 48 54 55 63 69 87 101 95 87 112 130 169 68 90 89 104 64 45 29
174 209 223 230 209 193 187 194 203 161 345 66 51 53 52 46 41 38 28 30 34 15 7 10 23 31 42 62 74 87 107 101 83 116 117 127 54 79 75 64 12 336 347
185 219 230 229 216 212 208 206 203 195 224 250 43 51 63 55 47 35 29 26 29 14 344 332 343 18 34 59 92 98 120 105 82 65 38 68 31 50 35 16 342 320 316
193 224 247 231 225 220 218 211 206 206 221 224 215 301 44 59 46 35 25 23 21 26 10 342 330 333 28 191 139 130 146 143 157 291 269 321 333 326 320 323 347 320 308
205 202 242 257 229 215 218 217 211 212 220 221 225 230 248 20 35 28 29 27 23 19 22 30 30 359 308 266 201 159 169 197 46 287 300 51 14 336 319 305 295 311 303
204 213 228 249 250 219 213 214 213 214 216 219 225 233 224 244 345 12 25 23 18 22 20 30 45 64 69 272 241 198 192 191 6 242 267 300 113 266 346 345 295 274 282
209 216 204 228 247 260 227 217 217 216 217 219 223 227 230 219 244 1 9 11 8 14 18 25 41 58 69 83 148 172 201 187 159 258 269 284 277 348 10 293 262 246 240
215 214 216 230 238 245 232 240 222 221 222 224 225 225 226 234 263 321 352 355 359 356 360 7 12 15 96 83 136 192 217 171 209 254 281 291 273 280 291 260 250 259 268
222 221 215 214 232 231 212 236 241 228 223 222 224 217 223 225 231 259 295 333 348 343 327 329 342 348 102 154 218 195 219 194 237 264 286 289 279 279 271 264 271 255 256
226 222 220 212 219 221 220 232 238 236 230 220 226 218 217 227 228 247 261 307 334 339 329 315 317 272 222 224 204 226 230 227 227 264 284 289 279 273 271 269 266 264 268
230 230 230 222 213 220 222 224 229 219 229 222 226 220 226 229 232 240 253 268 292 313 308 302 294 287 264 251 241 234 251 247 234 275 287 286 276 274 273 270 266 265 264
243 236 236 230 220 224 222 226 229 214 226 231 230 224 226 229 231 235 241 252 267 280 291 285 282 273 270 269 262 253 253 256 261 267 282 284 278 277 276 277 276 271 269
248 245 236 234 231 220 230 228 232 229 226 228 230 233 228 229 229 234 237 244 253 262 268 273 270 265 265 260 269 282 270 269 274 277 280 289 282 277 278 278 278 278 279
247 250 250 238 240 234 224 235 232 234 229 230 228 236 233 227 229 234 235 242 248 254 260 265 266 259 258 259 255 274 286 286 281 276 284 281 288 289 281 277 281 280 280
249 247 250 251 240 236 236 226 234 237 238 238 232 236 236 231 230 233 236 239 244 250 253 258 262 259 253 251 247 239 265 274 287 280 284 285 281 272 281 284 281 280 280
278 247 246 254 259 240 239 227 233 236 241 242 239 237 239 235 233 233 236 237 243 245 247 250 254 251 248 247 250 245 256 261 275 266 258 278 286 296 296 294 284 285 284
31 33 20 354 265 262 235 229 226 237 235 235 241 241 240 240 238 235 236 237 241 244 246 247 245 248 246 243 249 254 252 264 280 278 267 253 252 286 295 307 311 310 302
7 4 356 332 307 313 291 246 238 232 236 239 240 241 239 244 242 235 235 237 241 244 239 241 241 243 243 241 236 233 251 233 252 261 265 258 268 253 276 298 305 297 296
360 354 352 340 317 303 292 294 241 231 233 234 233 241 241 239 245 239 235 236 239 241 239 242 241 241 238 237 236 221 203 220 204 241 256 250 257 279 300 289 286 295 303
356 350 346 347 344 331 304 296 278 246 232 233 238 243 242 237 240 243 237 236 237 239 237 240 239 238 236 237 234 228 223 218 215 210 225 246 256 276 281 292 300 287 288
347 341 332 332 331 327 333 314 285 301 253 241 237 239 239 239 236 242 239 235 235 236 236 237 237 236 233 229 238 236 227 230 234 237 239 227 251 262 273 273 279 289 296
344 336 334 337 323 323 322 319 313 284 285 246 237 238 236 237 234 236 240 236 235 235 233 235 235 236 235 228 225 234 237 230 233 239 250 262 267 275 278 283 287 280 287